Hourly Data Report for March 15, 2021

TORONTO CITY
ONTARIO
Current Station Operator: ECCC - MSC

43°40'00.000" N
79°24'00.000" W
112.50 m
6158355
71508
XTO

Download Data

Hourly Data (March 2021)
Hourly Data Report for March 15, 2021
TIME
LST
Temp Definition
°C
Dew Point Definition
°C
Rel Hum Definition
%
Precip. Amount Definition
mm

Wind Dir Definition
10's deg

Wind Spd Definition
km/h
Visibility Definition
km
Stn Press Definition
kPa
Hmdx Definition


Wind Chill Definition


Weather Definition


00:00 -4.1 -19.8 28 0.0       101.88     LegendNANA
01:00 -4.7 -19.2 31 0.0       101.87     LegendNANA
02:00 -5.5 -18.7 35 0.0       101.85     LegendNANA
03:00 -6.2 -20.0 33 0.0       101.85     LegendNANA
04:00 -6.7 -21.0 31 0.0       101.90     LegendNANA
05:00 -7.1 -20.8 33 0.0       101.96     LegendNANA
06:00 -7.3 -19.5 37 0.0       101.98     LegendNANA
07:00 -7.7 -20.0 36 0.0       102.03     LegendNANA
08:00 -6.8 -21.4 30 0.0       102.06     LegendNANA
09:00 -6.0 -23.2 24 0.0       102.10     LegendNANA
10:00 -4.8 -23.5 22 0.0       102.07     LegendNANA
11:00 -2.7 -20.7 24 0.0       102.03     LegendNANA
12:00 -2.6 -22.7 20 0.0       101.95     LegendNANA
13:00 -2.8 -17.5 31 0.0       101.87     LegendNANA
14:00 -2.7 -16.1 35 0.0       101.71     LegendNANA
15:00 -2.8 -15.0 39 0.0       101.69     LegendNANA
16:00 -2.9 -14.3 41 0.0       101.61     LegendNANA
17:00 -3.0 -14.4 41 0.0       101.51     LegendNANA
18:00 -3.1 -13.3 45 0.0       101.43     LegendNANA
19:00 -2.8 -12.3 48 0.0       101.44     LegendNANA
20:00 -2.2 -13.2 42 0.0       101.37     LegendNANA
21:00 -1.9 -14.0 39 0.0       101.32     LegendNANA
22:00 -1.9 -12.8 43 0.0       101.21     LegendNANA
23:00 -1.7 -13.7 40 0.0       101.15     LegendNANA

Notes on Data Quality.

Legend

  • E = Estimated
  • M = Missing
  • NA = Not Available*
  • [empty] = Indicates an unobserved value
Date modified: